Вернуться в каталог

DELTA 1 DEB

АктивенSSO
NORAD 42091·DEBRIS·🇺🇸 United States

Запущен Dec 15, 1968 с Vandenberg Space Force Base

Loading…

Ближайшие Пролёты (ближайшие 24 часа)

TLE

СвежийSource: Space-Track

Эпоха: Sep 12, 2026, 16:26 UTC

1 42091U 68114T   26255.68537233  .00000013  00000-0  37779-3 0  9993
2 42091 101.4960 228.4240 0036357 131.4785  41.5809 12.47227537583029

Отслеживайте DELTA 1 DEB в реальном времени с AllMySat

Download on the App Store